Location: C?rm?zine?ti
(46.0167°N, 22.6333°E)
Time: 12:01:28
(UTC+00:00)

Daily predictions for brighter satellites

Satellite Brightness Start Highest point End
(mag) Time Altitude Azimuth Time Altitude Azimuth Time Altitude Azimuth
Cosmos 158 Rocket 4.2 15:51:59 10° NNW 15:57:23 85° WSW 16:02:47 10° SSE
SJ 16-02 1.7 15:54:32 10° SSW 15:58:54 70° WNW 16:03:19 10° NNE
Cosmos 1844 Rocket 3.1 15:53:33 10° SW 15:59:11 69° WNW 16:04:51 10° NNE
Cosmos 990 Rocket 4.1 15:54:12 10° S 15:59:17 56° ESE 16:04:21 10° NNE
NOSS 3-1 (A) 4.2 15:52:56 10° NW 16:00:08 54° NE 16:08:29 10° ESE
Cosmos 1818 4.4 15:56:35 10° WSW 16:01:53 50° NW 16:07:13 10° NNE
COSMOS 2406 3.7 15:56:27 10° NNW 16:01:53 40° NE 16:07:16 10° ESE
Cosmos 2082 Rocket 3.4 15:57:43 10° N 16:02:10 23° NE 16:06:35 10° E
YAOGAN 1 3.9 15:59:54 10° ESE 16:02:56 19° ENE 16:05:58 10° NNE
Cosmos 1844 3.9 15:57:19 10° SSW 16:02:59 79° WNW 16:08:47 10° NNE
Cosmos 1892 Rocket 4.4 15:59:37 10° SSW 16:03:51 53° WNW 16:08:07 10° N
H-2A R/B 3.0 16:01:10 10° S 16:05:17 66° WSW 16:09:36 10° NNW
ATLAS 2AS CENTAUR R/B 4.5 15:59:36 10° WNW 16:05:42 24° NNW 16:11:38 10° NE
Meteor 2-1 Rocket 4.2 16:06:06 10° N 16:11:39 90° E 16:17:10 10° S
Cosmos 1703 3.4 16:08:02 10° S 16:11:48 52° E 16:15:35 10° NNE
ATLAS 5 CENTAUR R/B 4.0 16:12:09 10° NW 16:14:25 14° NNW 16:16:51 10° NNE
Cosmos 1812 Rocket 3.7 16:10:50 10° N 16:15:06 48° ENE 16:19:17 10° SSE
X-37B 0.8 16:12:52 10° W 16:16:02 69° S 16:19:13 10° ESE
Okean O Rocket 2.0 16:13:22 10° S 16:17:46 72° WSW 16:22:12 10° NNW
ISS -2.5 16:15:04 10° WNW 16:18:08 31° N 16:20:51 12° NE
Iridium 4 Rocket 3.9 16:15:47 10° N 16:20:51 40° E 16:25:27 10° SSE
CZ-4C R/B 4.3 16:17:05 10° NW 16:20:56 17° N 16:25:12 10° NE
CZ-4 R/B 2.1 16:19:59 10° SE 16:23:31 30° ENE 16:27:01 10° N
USA 234 4.2 16:18:48 10° NE 16:24:36 35° N 16:30:24 10° WNW
SKYMED 2 3.7 16:21:08 10° NNE 16:25:25 52° E 16:29:39 10° S
ERS-2 3.1 16:24:47 10° NE 16:27:57 27° E 16:31:06 10° SSE
Cosmos 2278 Rocket 2.6 16:24:02 10° S 16:29:19 42° ESE 16:34:39 10° NE
Okean-O 3.2 16:25:31 10° SE 16:29:30 34° ENE 16:33:31 10° N
CZ-2C R/B 3.2 16:29:04 10° SSE 16:34:31 68° ENE 16:40:14 10° N
Cosmos 1346 Rocket 3.5 16:32:13 10° SSE 16:35:43 32° E 16:39:15 10° NNE
Cosmos 1340 2.5 16:32:09 10° S 16:35:53 82° ESE 16:39:40 10° NNE
NOSS 2-1 (E) 3.4 16:32:53 10° SW 16:36:08 58° NW 16:39:26 11° NNE
CZ-4B R/B 4.4 16:30:52 10° S 16:36:15 48° W 16:41:45 10° NNW
Cosmos 1627 Rocket 4.5 16:35:42 10° S 16:41:51 72° E 16:48:09 10° NNE
Cosmos 44 Rocket 4.5 16:38:44 10° SSE 16:42:40 24° ESE 16:44:33 19° E
SAR-Lupe-4 4.1 16:43:32 14° NE 16:46:10 35° E 16:49:29 10° SSE
ARGOS 3.6 16:42:49 10° SE 16:47:44 38° ENE 16:52:42 10° N
Cosmos 1455 4.3 16:44:40 10° NNW 16:48:03 30° W 16:51:27 10° SSW
Cosmos 405 2.8 16:45:11 10° N 16:48:44 84° E 16:52:14 10° SSE
Cosmos 1092 Rocket 4.1 16:44:39 10° S 16:50:49 82° W 16:57:00 10° N
Cosmos 1898 Rocket 4.0 16:48:45 10° SW 16:53:56 60° WNW 16:59:07 10° NNE
Cosmos 372 Rocket 4.1 16:49:53 10° S 16:54:57 56° ESE 16:59:57 11° NNE
Cosmos 1869 4.3 16:51:47 10° NNE 16:54:29 25° ENE 16:54:29 25° ENE
CZ-2C R/B 3.5 16:52:36 10° NE 16:57:25 29° E 17:02:14 10° SSE
PSLV R/B 4.0 16:53:21 10° NNE 16:57:32 57° ESE 17:01:40 10° S
TELKOM 3 3.6 16:56:36 10° WNW 16:58:27 39° N 16:58:27 39° N
SAR-Lupe-1 4.1 16:59:46 18° NNE 17:02:16 56° E 17:05:48 10° S
CZ-4B R/B 2.6 17:01:14 10° N 17:04:22 42° WNW 17:07:25 10° SW
CZ-2D R/B 4.1 17:00:57 10° S 17:04:41 51° W 17:08:27 10° NNW
MOS 1 Rocket 3.3 17:01:52 10° N 17:06:09 72° WNW 17:10:29 10° SSW
Cosmos 1048 Rocket 4.3 17:01:26 10° N 17:06:19 42° ENE 17:09:13 22° ESE
Meteor 2-15 4.4 17:00:44 10° N 17:06:56 85° E 17:13:05 10° S
Meteor 1-11 4.2 17:02:54 10° S 17:08:36 88° E 17:14:15 10° NNE
Cosmos-2242 3.0 17:06:01 10° N 17:10:20 85° W 17:14:40 10° S
COSMO-SKYMED 1 3.5 17:09:15 10° N 17:13:27 49° WNW 17:17:38 10° SW
Cosmos 1937 Rocket 4.3 17:11:26 10° SW 17:16:37 53° WNW 17:21:51 10° NNE
Cosmos 1758 Rocket 4.0 17:12:23 10° SSW 17:16:50 66° W 17:21:19 10° N
Cosmos 2098 Rocket 4.5 17:10:02 10° S 17:17:28 81° W 17:24:40 10° N
BREEZE-M DEB (TANK) 2.1 17:15:20 10° WNW 17:17:14 59° NNW 17:17:14 59° NNW
CSL-04 Debris 4.0 17:15:57 10° SSE 17:21:17 71° ENE 17:26:40 10° N
SL-08 RB Rocket 3.8 17:21:13 35° ESE 17:22:42 50° ENE 17:27:02 10° N
USA 290 3.5 17:19:44 10° NW 17:22:46 40° WSW 17:25:47 10° S
H-2A R/B 2.2 17:21:54 10° S 17:26:57 75° WSW 17:32:11 10° NNW
Cosmos 1833 Rocket 3.2 17:21:27 10° NNW 17:26:58 59° WSW 17:32:27 10° S
Cosmos 1125 Rocket 3.9 17:23:42 10° S 17:28:19 41° ESE 17:28:19 41° ESE
Cosmos 2266 Rocket 4.1 17:23:08 10° SSE 17:29:06 50° E 17:35:01 10° NNE
Helios 1A Rocket 3.0 17:25:26 10° S 17:29:34 79° WSW 17:33:44 10° NNW
Cosmos 2298 Rocket 4.0 17:25:40 10° S 17:30:54 64° ESE 17:33:00 36° NE
CZ-3B R/B 3.2 17:33:38 10° WNW 17:36:52 57° SW 17:47:55 10° SE
YAOGAN 1 3.5 17:34:30 10° S 17:38:41 49° W 17:42:54 10° NNW
Cosmos 1689 Rocket 3.7 17:41:34 33° W 17:41:34 33° W 17:43:57 10° SW
In-Cosmos 22 Rocket 4.1 17:35:48 10° S 17:41:33 72° E 17:47:13 10° NNE
Cosmos 1553 Rocket 4.4 17:36:40 10° NNW 17:43:01 66° W 17:49:14 10° S
Cosmos 1943 Rocket 4.2 17:41:04 10° SSE 17:41:41 13° SSE 17:41:41 13° SSE
Cosmos 1241 Rocket 4.4 17:39:52 10° SSW 17:46:18 72° ESE 17:48:35 43° NE
HJ-1C 4.5 17:47:04 42° WNW 17:47:04 42° WNW 17:49:41 10° NNW
Cosmos 2082 Rocket 2.3 17:41:09 10° NNW 17:46:52 74° WSW 17:51:40 15° SSE
X-37B 2.8 17:49:38 10° W 17:51:36 24° SW 17:51:36 24° SW
NOSS 2-2 (E) 4.4 17:49:11 10° NW 17:54:42 70° NE 17:56:04 55° ESE
Meteor 2-21 4.3 17:49:03 10° S 17:55:06 75° E 18:01:15 10° NNE
MetOp-A 4.3 17:56:25 53° NNE 17:56:25 53° NNE 18:00:47 10° N
ISS -1.6 17:52:16 10° WNW 17:53:50 23° NW 17:53:50 23° NW
CZ-4 R/B 3.7 17:55:16 10° SSW 17:58:33 24° W 18:01:49 10° NW
ATLAS 2AS CENTAUR R/B 4.3 17:53:50 10° NW 17:59:34 22° N 18:00:55 21° NNE
ATLAS 5 CENTAUR R/B 4.3 17:59:39 10° N 18:00:57 11° N 18:00:57 11° N
ERS-2 4.5 17:58:38 11° NNW 18:01:22 22° WNW 18:04:15 10° WSW
Cosmos 2315 Rocket 3.8 17:55:21 10° N 18:01:34 67° E 18:01:36 67° E
CSL-04 Rocket 4.2 17:57:14 10° S 18:02:35 58° WSW 18:08:03 10° NNW
Cosmos 883 Rocket 4.3 17:56:25 10° N 18:02:38 81° E 18:05:20 36° SSE
Meteor 2-14 Rocket 4.3 17:57:07 10° S 18:03:11 82° E 18:09:18 10° N
USA 234 3.9 18:05:52 37° NNE 18:06:40 38° NNE 18:12:36 10° NW
S3M 4.4 18:03:28 10° NNW 18:09:27 59° W 18:15:27 10° S
Cosmos 1655 Rocket 4.3 18:05:48 10° SSW 18:11:58 66° W 18:18:11 10° N
CZ-4C R/B 4.1 18:06:55 10° NNW 18:11:46 23° NNE 18:11:46 23° NNE
Cosmos 2278 Rocket 3.6 18:08:20 10° WSW 18:13:29 35° NW 18:17:12 17° N
Cosmos 44 Rocket 4.0 18:19:00 10° SW 18:23:19 52° WNW 18:23:19 52° WNW
CZ-2C R/B 3.7 18:33:45 17° N 18:37:51 46° WNW 18:43:10 10° SW
